| time (UTC) | temp C | wind direction | speed KPH | gust KPH | rain 1hr cm | rain 24hr cm | rain mn cm | humidity % | barometer mb |
| 20260503211016 | 11 | 225 | 1.6 | 9.7 | 0.00 | 0.00 | 0.00 | 78 | 1013.1 |
| 20260503210016 | 11 | 225 | 3.2 | 14.5 | 0.00 | 0.00 | 0.00 | 78 | 1013.1 |
| 20260503205016 | 11 | 180 | 3.2 | 8.0 | 0.00 | 0.00 | 0.00 | 76 | 1013.2 |
| 20260503204037 | 11 | 225 | 1.6 | 8.0 | 0.00 | 0.00 | 0.00 | 76 | 1013.2 |
| 20260503203016 | 11 | 180 | 6.4 | 19.3 | 0.00 | 0.00 | 0.00 | 77 | 1013.2 |
| 20260503202016 | 11 | 248 | 8.0 | 17.7 | 0.00 | 0.00 | 0.00 | 77 | 1013.3 |
| 20260503201016 | 11 | 270 | 6.4 | 14.5 | 0.00 | 0.00 | 0.00 | 76 | 1013.2 |
| 20260503200016 | 11 | 270 | 4.8 | 17.7 | 0.00 | 0.00 | 0.00 | 79 | 1013.3 |
| 20260503195516 | 11 | 180 | 4.8 | 16.1 | 0.00 | 0.00 | 0.00 | 79 | 1013.3 |
| 20260503194516 | 11 | 270 | 6.4 | 16.1 | 0.00 | 0.00 | 0.00 | 77 | 1013.3 |
| 20260503193516 | 11 | 270 | 1.6 | 6.4 | 0.00 | 0.00 | 0.00 | 78 | 1013.4 |
| 20260503192516 | 11 | 248 | 1.6 | 4.8 | 0.00 | 0.00 | 0.00 | 78 | 1013.4 |
| 20260503191536 | 11 | 203 | 1.6 | 6.4 | 0.00 | 0.00 | 0.00 | 78 | 1013.6 |
| 20260503190516 | 11 | 180 | 3.2 | 9.7 | 0.00 | 0.00 | 0.00 | 79 | 1013.4 |
| 20260503185516 | 11 | 180 | 3.2 | 12.9 | 0.00 | 0.00 | 0.00 | 78 | 1013.4 |
| 20260503184516 | 11 | 248 | 3.2 | 11.3 | 0.00 | 0.00 | 0.00 | 78 | 1013.4 |
| 20260503183536 | 11 | 248 | 3.2 | 12.9 | 0.00 | 0.00 | 0.00 | 82 | 1013.3 |
| 20260503182516 | 10 | 270 | 4.8 | 14.5 | 0.00 | 0.00 | 0.00 | 82 | 1013.3 |
| 20260503181517 | 10 | 225 | 4.8 | 17.7 | 0.00 | 0.00 | 0.00 | 82 | 1013.2 |
| 20260503180516 | 10 | 203 | 3.2 | 11.3 | 0.00 | 0.00 | 0.00 | 84 | 1013.1 |
| 20260503175516 | 10 | 180 | 6.4 | 16.1 | 0.00 | 0.00 | 0.00 | 85 | 1013.3 |
| 20260503174516 | 9 | 203 | 4.8 | 12.9 | 0.00 | 0.00 | 0.00 | 89 | 1013.2 |
| 20260503173516 | 9 | 248 | 6.4 | 16.1 | 0.00 | 0.03 | 0.00 | 89 | 1013.1 |
| 20260503172536 | 8 | 180 | 4.8 | 14.5 | 0.00 | 0.03 | 0.00 | 89 | 1013.0 |
| 20260503171516 | 8 | 180 | 3.2 | 9.7 | 0.00 | 0.03 | 0.00 | 92 | 1013.0 |
| 20260503170536 | 8 | 203 | 4.8 | 12.9 | 0.00 | 0.03 | 0.00 | 92 | 1012.9 |
| 20260503150516 | 8 | 0.0 | 4.8 | 0.00 | 0.03 | 0.00 | 92 | 1012.5 | |
| 20260503131015 | 7 | 270 | 1.6 | 9.7 | 0.00 | 0.03 | 0.00 | 94 | 1011.4 |
| 20260503110515 | 7 | 0.0 | 1.6 | 0.00 | 0.03 | 0.00 | 94 | 1011.6 | |
| 20260503081517 | 8 | 0.0 | 0.0 | 0.00 | 0.03 | 0.00 | 94 | 1011.9 | |
| 20260503080537 | 8 | 0.0 | 0.0 | 0.00 | 0.03 | 0.00 | 94 | 1012.1 | |
| 20260503072517 | 8 | 0.0 | 0.0 | 0.00 | 0.03 | 0.00 | 93 | 1012.1 | |
| 20260503071517 | 8 | 0.0 | 0.0 | 0.00 | 0.03 | 0.00 | 93 | 1011.9 | |
| 20260503070517 | 8 | 0.0 | 3.2 | 0.00 | 0.03 | 0.00 | 93 | 1011.9 | |
| 20260503054515 | 8 | 0.0 | 0.0 | 0.00 | 0.03 | 0.03 | 91 | 1012.0 | |
| 20260503053535 | 8 | 0.0 | 1.6 | 0.00 | 0.03 | 0.03 | 91 | 1012.1 | |
| 20260503052515 | 8 | 0.0 | 3.2 | 0.00 | 0.03 | 0.03 | 91 | 1012.2 | |
| 20260503051515 | 8 | 0.0 | 4.8 | 0.00 | 0.03 | 0.03 | 91 | 1012.2 | |
| 20260503050535 | 8 | 0.0 | 3.2 | 0.00 | 0.03 | 0.03 | 91 | 1012.1 | |
| 20260503045515 | 8 | 0.0 | 1.6 | 0.00 | 0.03 | 0.03 | 90 | 1012.0 | |
| 20260503044515 | 8 | 0.0 | 3.2 | 0.00 | 0.03 | 0.03 | 90 | 1011.8 | |
| 20260503043515 | 8 | 0.0 | 0.0 | 0.00 | 0.03 | 0.03 | 89 | 1011.8 | |
| 20260503042515 | 9 | 0.0 | 0.0 | 0.00 | 0.03 | 0.03 | 89 | 1011.8 | |
| 20260503041515 | 9 | 0.0 | 1.6 | 0.00 | 0.03 | 0.03 | 89 | 1011.8 | |
| 20260503040515 | 9 | 0.0 | 1.6 | 0.00 | 0.03 | 0.03 | 89 | 1011.8 | |
| 20260503035515 | 9 | 0.0 | 0.0 | 0.00 | 0.03 | 0.03 | 89 | 1011.6 | |
| 20260503034515 | 9 | 0.0 | 3.2 | 0.00 | 0.03 | 0.03 | 88 | 1011.4 | |
| 20260503033535 | 10 | 0.0 | 1.6 | 0.00 | 0.03 | 0.03 | 88 | 1011.4 | |
| 20260503032515 | 10 | 0.0 | 3.2 | 0.00 | 0.03 | 0.03 | 87 | 1011.3 | |
| 20260503031515 | 10 | 0.0 | 1.6 | 0.00 | 0.03 | 0.03 | 87 | 1011.2 | |
| 20260503030515 | 10 | 0.0 | 1.6 | 0.00 | 0.03 | 0.03 | 87 | 1011.4 | |
| 20260503025515 | 10 | 45 | 1.6 | 4.8 | 0.00 | 0.03 | 0.03 | 86 | 1011.1 |
| 20260503024515 | 11 | 45 | 1.6 | 6.4 | 0.00 | 0.03 | 0.03 | 86 | 1011.2 |
| 20260503023517 | 11 | 0.0 | 3.2 | 0.00 | 0.03 | 0.03 | 85 | 1011.1 | |
| 20260503022517 | 11 | 0.0 | 3.2 | 0.00 | 0.03 | 0.03 | 85 | 1011.1 | |
| 20260503021558 | 11 | 0.0 | 1.6 | 0.00 | 0.03 | 0.03 | 85 | 1011.0 | |
| 20260503020517 | 12 | 45 | 1.6 | 4.8 | 0.00 | 0.03 | 0.03 | 84 | 1011.2 |
| 20260503015517 | 12 | 0.0 | 3.2 | 0.00 | 0.03 | 0.03 | 82 | 1011.3 | |
| 20260503014517 | 12 | 23 | 1.6 | 6.4 | 0.00 | 0.03 | 0.03 | 82 | 1011.4 |
| 20260503013517 | 13 | 23 | 1.6 | 4.8 | 0.00 | 0.03 | 0.03 | 81 | 1011.5 |
| 20260503012517 | 13 | 23 | 1.6 | 4.8 | 0.00 | 0.03 | 0.03 | 81 | 1011.6 |
| 20260503011518 | 13 | 0.0 | 4.8 | 0.00 | 0.03 | 0.03 | 80 | 1011.6 | |
| 20260503010517 | 13 | 23 | 1.6 | 6.4 | 0.00 | 0.03 | 0.03 | 80 | 1011.6 |
| 20260503005522 | 13 | 0 | 1.6 | 8.0 | 0.00 | 0.03 | 0.03 | 78 | 1011.5 |
| 20260503004517 | 14 | 0 | 1.6 | 6.4 | 0.00 | 0.03 | 0.03 | 76 | 1011.7 |
| 20260503003537 | 15 | 23 | 3.2 | 8.0 | 0.00 | 0.03 | 0.03 | 76 | 1011.8 |
| 20260503002516 | 15 | 23 | 1.6 | 4.8 | 0.00 | 0.03 | 0.03 | 77 | 1011.8 |
| 20260503001517 | 15 | 23 | 3.2 | 6.4 | 0.00 | 0.03 | 0.03 | 76 | 1011.9 |
| 20260503000517 | 15 | 45 | 3.2 | 8.0 | 0.00 | 0.03 | 0.03 | 75 | 1011.9 |
| 20260502235517 | 15 | 23 | 3.2 | 8.0 | 0.00 | 0.03 | 0.03 | 75 | 1012.0 |
| 20260502235017 | 15 | 0.0 | 3.2 | 0.00 | 0.03 | 0.03 | 77 | 1011.9 | |
| 20260502234037 | 15 | 23 | 3.2 | 8.0 | 0.00 | 0.03 | 0.03 | 76 | 1012.0 |
| 20260502233017 | 15 | 23 | 3.2 | 6.4 | 0.00 | 0.03 | 0.03 | 75 | 1012.1 |
| 20260502232017 | 15 | 0 | 3.2 | 8.0 | 0.00 | 0.03 | 0.03 | 76 | 1012.2 |
| 20260502231017 | 15 | 338 | 4.8 | 9.7 | 0.00 | 0.03 | 0.03 | 74 | 1012.3 |
| 20260502230015 | 16 | 45 | 4.8 | 11.3 | 0.00 | 0.03 | 0.03 | 74 | 1012.5 |
| 20260502225037 | 16 | 45 | 3.2 | 11.3 | 0.00 | 0.03 | 0.03 | 73 | 1012.6 |
| 20260502224016 | 16 | 45 | 1.6 | 6.4 | 0.00 | 0.03 | 0.03 | 72 | 1012.9 |
| 20260502223017 | 16 | 0 | 3.2 | 8.0 | 0.00 | 0.03 | 0.03 | 75 | 1012.8 |
| 20260502222037 | 16 | 23 | 3.2 | 9.7 | 0.00 | 0.03 | 0.03 | 73 | 1013.1 |
| 20260502221037 | 16 | 0 | 1.6 | 9.7 | 0.00 | 0.03 | 0.03 | 71 | 1013.3 |
| 20260502220037 | 16 | 23 | 3.2 | 9.7 | 0.00 | 0.03 | 0.03 | 73 | 1013.4 |
| 20260502215016 | 16 | 0 | 4.8 | 9.7 | 0.00 | 0.03 | 0.03 | 72 | 1013.5 |
| 20260502214037 | 16 | 0 | 1.6 | 12.9 | 0.00 | 0.03 | 0.03 | 74 | 1013.5 |
| 20260502213017 | 16 | 45 | 3.2 | 9.7 | 0.00 | 0.03 | 0.03 | 73 | 1013.6 |
| 20260502212016 | 16 | 23 | 1.6 | 8.0 | 0.00 | 0.03 | 0.03 | 74 | 1013.5 |